Stations météo

réclame
Mon MeteoGroup
Helsingborg, Suède (2611): Température de l'air & dewpoint: 12.09.2019 11:00:00 - 18.09.2019 11:00:00 (CEST)Helsingborg, Suède (2611): Vitesse du vent & gusts: 12.09.2019 11:00:00 - 18.09.2019 11:00:00 (CEST)Helsingborg, Suède (2611): Direction du vent: 12.09.2019 11:00:00 - 18.09.2019 11:00:00 (CEST)Helsingborg, Suède (2611): reduced air pressure: 12.09.2019 11:00:00 - 18.09.2019 11:00:00 (CEST)Helsingborg, Suède (2611): visibility: 12.09.2019 11:00:00 - 18.09.2019 11:00:00 (CEST)Helsingborg, Suède (2611): Quantités de précipitations: 12.09.2019 11:00:00 - 18.09.2019 11:00:00 (CEST)
Date & Time tt [°C] td [°C] ff [km/h] ff [knt] fx [km/h] fx [knt] dd ppp [hPa] vv [km] rr [mm]
18.09.2019 11:00:00 15,3 8,1 12 7 21 11 NNW 1016,4 42 0,0
18.09.2019 10:00:00 11,9 7,4 13 7 22 12 NNW 1016,0 49 0,0
18.09.2019 09:00:00 12,0 10,4 7 4 21 11 NNW 1015,2 30 0,3
18.09.2019 08:00:00 9,5 7,6 6 3 13 7 N 1014,7 12 0,3
18.09.2019 07:00:00 9,2 5,9 11 6 32 17 NNW 1014,3 50 0,1
18.09.2019 06:00:00 11,4 5,9 18 10 36 19 NNW 1013,7 47 0,0
18.09.2019 05:00:00 11,9 6,2 16 8 30 16 WNW 1013,1 38 0,0
18.09.2019 04:00:00 11,6 2,9 12 7 26 14 NW 1012,9 50 0,0
18.09.2019 03:00:00 11,4 3,4 12 7 27 14 WNW 1012,6 50 0,0
18.09.2019 02:00:00 7,6 3,1 8 4 12 6 NW 1012,4 50 0,0
18.09.2019 01:00:00 6,4 3,7 6 4 10 5 NW 1012,2 50 0,0
18.09.2019 00:00:00 6,4 4,2 7 4 14 8 NNW 1011,6 50 0,0
17.09.2019 23:00:00 7,7 4,6 11 6 29 16 NNW 1011,0 50 0,0
17.09.2019 22:00:00 7,8 5,3 15 8 26 14 NNW 1009,9 50 0,0
17.09.2019 21:00:00 8,3 4,3 16 9 36 19 NNW 1008,4 50 0,1
17.09.2019 20:00:00 8,0 4,8 17 9 43 23 NNW 1007,2 50 0,0
17.09.2019 19:00:00 8,2 5,0 29 16 62 34 NW 1006,5 4,4 1,6
17.09.2019 18:00:00 11,7 3,0 29 16 54 29 NW 1005,2 45 0,0
17.09.2019 17:00:00 11,5 2,8 26 14 53 29 NW 1004,7 49 0,0
17.09.2019 16:00:00 10,5 4,6 30 16 53 28 NW 1004,1 17 0,4
17.09.2019 15:00:00 8,7 4,9 31 17 66 35 WNW 1004,3 7 1,8
17.09.2019 14:00:00 12,6 3,8 28 15 55 30 W 1004,1 30 0,0
17.09.2019 13:00:00 11,4 3,7 28 15 56 30 W 1004,5 30 0,0
17.09.2019 12:00:00 12,0 4,0 24 13 50 27 W 1004,8 40 0,0
17.09.2019 11:00:00 11,2 4,4 21 11 46 25 W 1005,6 37 0,0
17.09.2019 10:00:00 11,0 4,5 27 15 52 28 W 1005,8 31 0,0
17.09.2019 09:00:00 11,2 4,2 24 13 48 26 W 1006,0 27 0,0
17.09.2019 08:00:00 10,7 4,4 19 10 44 24 W 1006,4 29 0,0
17.09.2019 07:00:00 10,1 5,9 22 12 48 26 W 1007,0 17 0,0
17.09.2019 06:00:00 10,6 6,9 16 8 36 19 W 1007,3 14 0,1
17.09.2019 05:00:00 11,3 6,8 18 10 37 20 W 1007,9 31 0,0
17.09.2019 04:00:00 11,6 7,3 18 10 34 18 WSW 1008,7 25 0,0
17.09.2019 03:00:00 11,4 7,7 13 7 31 17 W 1009,4 28 0,0
17.09.2019 02:00:00 12,0 7,7 18 10 32 17 W 1010,1 27 0,0
17.09.2019 01:00:00 11,7 7,2 14 8 31 17 W 1010,6 29 0,0
17.09.2019 00:00:00 12,0 7,5 17 9 34 18 W 1011,1 32 0,0
16.09.2019 23:00:00 12,1 7,6 16 9 33 18 W 1011,6 33 0,0
16.09.2019 22:00:00 12,2 6,9 15 8 34 18 W 1012,0 44 0,0
16.09.2019 21:00:00 12,2 7,7 21 11 47 25 W 1012,2 14 0,0
16.09.2019 20:00:00 13,3 6,4 18 10 42 23 W 1012,1 38 0,0
16.09.2019 19:00:00 13,7 6,1 22 12 45 24 WNW 1012,0 28 0,0
16.09.2019 18:00:00 14,6 4,9 23 12 45 25 WNW 1012,1 24 0,0
16.09.2019 17:00:00 14,9 4,3 28 15 51 27 WNW 1012,3 28 0,0
16.09.2019 16:00:00 14,7 5,5 25 14 49 26 WNW 1012,2 21 0,0
16.09.2019 15:00:00 14,7 4,4 29 15 54 29 WNW 1012,4 20 0,0
16.09.2019 14:00:00 15,0 6,0 24 13 51 28 WNW 1012,5 - 0,0
16.09.2019 13:00:00 14,3 5,9 27 14 52 28 WNW 1012,3 - 0,0
16.09.2019 12:00:00 14,4 6,5 27 15 52 28 W 1012,2 - 0,0
16.09.2019 11:00:00 13,6 6,0 26 14 58 31 W 1012,2 - 0,0
16.09.2019 10:00:00 13,2 6,3 24 13 51 28 WNW 1012,2 - 0,0
16.09.2019 09:00:00 12,6 6,0 21 11 51 27 W 1012,0 - 0,0
16.09.2019 08:00:00 12,6 6,0 21 12 53 28 W 1011,8 - 0,0
16.09.2019 07:00:00 12,5 6,5 20 11 41 22 W 1011,7 - 0,0
16.09.2019 06:00:00 12,5 7,0 22 12 44 24 W 1012,0 - 0,0
16.09.2019 05:00:00 12,6 7,3 21 12 62 34 W 1011,9 - 0,0
16.09.2019 04:00:00 12,7 7,4 24 13 53 29 W 1012,1 - 0,0
16.09.2019 03:00:00 13,0 7,4 25 13 51 27 W 1011,8 - 0,0
16.09.2019 02:00:00 13,1 7,1 21 11 53 28 W 1011,8 - 0,0
16.09.2019 01:00:00 13,1 6,4 23 12 55 30 W 1012,1 - 0,0
16.09.2019 00:00:00 13,3 6,4 23 13 53 28 W 1011,8 - 0,0
15.09.2019 23:00:00 13,2 6,3 21 11 49 27 W 1011,7 - 0,0
15.09.2019 22:00:00 13,1 6,4 21 11 52 28 W 1011,5 - 0,0
15.09.2019 21:00:00 13,4 6,5 21 12 43 23 W 1011,3 - 0,0
15.09.2019 20:00:00 13,6 6,7 21 12 42 23 W 1011,7 - 0,0
15.09.2019 19:00:00 13,8 5,9 18 10 50 27 W 1011,6 - 0,0
15.09.2019 18:00:00 14,0 4,6 21 12 47 25 W 1011,9 - 0,0
15.09.2019 17:00:00 14,8 6,1 25 13 45 24 W 1011,6 - 0,0
15.09.2019 16:00:00 15,3 6,8 21 11 46 25 W 1011,3 - 0,0
15.09.2019 15:00:00 15,4 5,9 23 13 51 27 W 1011,2 - 0,0
15.09.2019 14:00:00 16,1 7,8 20 11 47 26 WNW 1011,2 - 0,0
15.09.2019 13:00:00 15,1 8,8 18 10 35 19 W 1011,5 - 0,0
15.09.2019 12:00:00 14,5 9,9 15 8 42 23 W 1011,1 - 0,0
15.09.2019 11:00:00 15,1 13,5 20 11 41 22 WSW 1010,4 - -
15.09.2019 10:00:00 14,6 13,0 19 11 41 22 WSW 1010,4 - 0,0
15.09.2019 09:00:00 14,8 11,6 25 13 47 26 SW 1010,8 - 0,0
15.09.2019 08:00:00 14,7 10,3 24 13 44 24 SW 1011,9 - 0,0
15.09.2019 07:00:00 14,3 10,1 21 12 38 21 SW 1012,8 - 0,0
15.09.2019 06:00:00 14,2 9,8 23 12 42 23 SW 1014,1 - 0,0
15.09.2019 05:00:00 14,3 10,1 23 12 41 22 SW 1015,4 - 0,0
15.09.2019 04:00:00 14,0 10,2 21 12 41 22 SSW 1016,8 - 0,0
15.09.2019 03:00:00 13,7 9,7 21 11 36 20 SSW 1018,1 - 0,0
15.09.2019 02:00:00 13,3 9,5 19 11 34 18 SSW 1019,9 - 0,0
15.09.2019 01:00:00 12,8 9,6 21 12 35 19 SSW 1021,2 - 0,0
15.09.2019 00:00:00 12,9 8,6 21 12 36 19 SSW 1022,4 - 0,0
14.09.2019 23:00:00 13,7 8,1 16 9 32 17 SSW 1023,3 - 0,0
14.09.2019 22:00:00 13,8 8,0 16 8 24 13 SW 1024,4 - 0,0
14.09.2019 21:00:00 14,0 7,7 13 7 24 13 SW 1025,5 - 0,0
14.09.2019 20:00:00 14,7 8,0 13 7 22 12 SW 1025,9 - 0,0
14.09.2019 19:00:00 15,0 7,5 10 5 29 16 SW 1026,7 - 0,0
14.09.2019 18:00:00 15,9 6,9 16 9 30 16 WSW 1027,3 - 0,0
14.09.2019 17:00:00 16,6 6,7 18 10 31 17 WSW 1028,3 - 0,0
14.09.2019 16:00:00 16,2 6,9 16 8 32 17 W 1028,8 - 0,0
14.09.2019 15:00:00 17,5 8,1 17 9 34 19 W 1029,4 - 0,0
14.09.2019 14:00:00 16,1 7,6 19 10 32 17 W 1030,1 - 0,0
14.09.2019 13:00:00 15,9 7,9 19 11 39 21 W 1030,3 - 0,0
14.09.2019 12:00:00 16,1 8,3 18 10 39 21 WNW 1030,4 - 0,0
14.09.2019 11:00:00 15,5 8,2 19 11 39 21 W 1030,6 - 0,0
14.09.2019 10:00:00 15,1 8,3 18 10 34 18 W 1030,7 - 0,0
14.09.2019 09:00:00 14,0 8,6 11 6 31 17 W 1030,5 - 0,0
14.09.2019 08:00:00 13,6 8,9 14 8 25 14 WNW 1030,1 - 0,0
14.09.2019 07:00:00 12,9 8,6 16 8 32 18 W 1029,9 - 0,0
14.09.2019 06:00:00 13,2 8,9 12 7 36 19 W 1029,8 - 0,0
14.09.2019 05:00:00 13,1 8,8 16 9 35 19 W 1029,7 - 0,0
14.09.2019 04:00:00 13,6 8,6 20 11 36 20 WNW 1029,6 - 0,0
14.09.2019 03:00:00 13,5 7,9 24 13 42 23 WNW 1029,5 - 0,0
14.09.2019 02:00:00 13,6 8,4 23 12 42 23 WNW 1029,3 - 0,0
14.09.2019 01:00:00 13,7 8,5 24 13 45 25 WNW 1029,4 - 0,0
14.09.2019 00:00:00 13,8 8,2 23 12 47 26 WNW 1029,5 - 0,0
13.09.2019 23:00:00 13,4 7,2 18 10 46 25 W 1029,2 - 0,0
13.09.2019 22:00:00 14,0 7,3 16 8 52 28 W 1028,8 - 0,0
13.09.2019 21:00:00 14,5 7,1 23 12 59 32 WNW 1028,6 - 0,0
13.09.2019 20:00:00 14,8 7,8 16 9 41 22 W 1028,1 - 0,0
13.09.2019 19:00:00 15,4 7,7 16 9 45 24 WNW 1027,4 - 0,0
13.09.2019 18:00:00 16,1 8,1 24 13 50 27 WNW 1026,8 - 0,0
13.09.2019 17:00:00 16,4 7,6 23 13 55 30 WNW 1026,7 - 0,0
13.09.2019 16:00:00 16,7 9,1 25 14 47 25 WNW 1026,5 - 0,0
13.09.2019 15:00:00 16,9 8,8 26 14 50 27 WNW 1025,9 - 0,0
13.09.2019 14:00:00 16,6 9,0 27 15 56 30 WNW 1025,3 - 0,0
13.09.2019 13:00:00 16,2 8,4 29 16 58 32 WNW 1024,7 - 0,0
13.09.2019 12:00:00 16,4 8,9 26 14 51 28 WNW 1023,8 - 0,0
13.09.2019 11:00:00 16,2 9,1 26 14 48 26 WNW 1023,0 - 0,0
13.09.2019 10:00:00 15,9 10,0 23 13 44 24 WNW 1021,9 - 0,0
13.09.2019 09:00:00 15,0 10,8 20 11 39 21 WNW 1021,0 - 0,0
13.09.2019 08:00:00 13,7 12,3 12 6 25 14 NW 1020,2 - 0,0
13.09.2019 07:00:00 12,8 12,0 14 8 35 19 NW 1019,4 - -
13.09.2019 06:00:00 13,7 13,1 19 10 30 16 NNW 1018,4 - -
13.09.2019 05:00:00 14,6 14,0 9 5 22 12 SW 1018,2 - -
13.09.2019 04:00:00 15,3 13,1 13 7 23 13 SSW 1018,8 - 0,0
13.09.2019 03:00:00 15,3 13,0 11 6 26 14 SW 1019,6 - 0,0
13.09.2019 02:00:00 15,3 12,8 15 8 26 14 SW 1020,3 - 0,0
13.09.2019 01:00:00 15,4 12,0 16 9 29 16 SW 1020,6 - 0,0
13.09.2019 00:00:00 15,7 11,9 14 8 29 15 SW 1021,0 - 0,0
12.09.2019 23:00:00 15,7 11,5 14 8 26 14 SW 1021,5 - 0,0
12.09.2019 22:00:00 15,9 11,3 13 7 23 12 SW 1022,0 - 0,0
12.09.2019 21:00:00 15,9 11,1 11 6 23 12 SW 1022,0 - 0,0
12.09.2019 20:00:00 15,9 10,4 10 5 22 12 SW 1021,9 - 0,0
12.09.2019 19:00:00 16,7 10,1 14 8 31 17 WSW 1021,9 - 0,0
12.09.2019 18:00:00 17,4 9,8 21 11 38 21 WSW 1021,8 - 0,0
12.09.2019 17:00:00 17,6 11,4 13 7 36 19 WSW 1021,8 - 0,0
12.09.2019 16:00:00 18,2 10,8 14 8 30 16 WSW 1022,0 - 0,0
12.09.2019 15:00:00 19,6 10,6 13 7 31 17 WSW 1021,8 - 0,0
12.09.2019 14:00:00 17,9 10,5 17 9 28 15 WSW 1022,0 - 0,0
12.09.2019 13:00:00 17,2 11,7 7 4 27 15 W 1021,8 - 0,0
12.09.2019 12:00:00 16,8 11,3 16 8 31 17 WSW 1021,7 - 0,0
12.09.2019 11:00:00 17,3 12,2 15 8 28 15 SW 1021,2 - 0,0

tt = Température de l'air
td = dewpoint
ff = Vitesse du vent
fx = gusts
dd = Direction du vent
ppp = reduced air pressure
vv = visibility
rr = Quantités de précipitations

stations d'obs. à proximité